This is the latest recevied weather packets stored in our database for station/object KG2V. If no packets are shown the sender has not sent any weather packets the latest 10 day(s).
| Time | Temp. | Humidity | Pressure | Rain* | Wind** | Luminosity | Snow |
|---|---|---|---|---|---|---|---|
| 1777670966 | 6.11° C | 90% | 1008 hPa | 0 mm | - | 101 W/m² | - |
| 1777670664 | 6.11° C | 90% | 1007.7 hPa | 0 mm | - | 111 W/m² | - |
| 1777670360 | 6.11° C | 91% | 1008.1 hPa | 0 mm | - | 134 W/m² | - |
| 1777670058 | 6.11° C | 91% | 1008 hPa | 0 mm | - | 132 W/m² | - |
| 1777669755 | 5.56° C | 90% | 1007.9 hPa | 0 mm | - | 125 W/m² | - |
| 1777669452 | 5.56° C | 90% | 1007.9 hPa | 1.78 mm | - | 122 W/m² | - |
| 1777669148 | 5.56° C | 90% | 1007.7 hPa | 1.78 mm | - | 102 W/m² | - |
| 1777668845 | 5.56° C | 90% | 1008 hPa | 0 mm | - | 118 W/m² | - |
| 1777668542 | 6.11° C | 90% | 1007.7 hPa | 0 mm | - | 127 W/m² | - |
| 1777668238 | 6.11° C | 91% | 1007.9 hPa | 0 mm | - | 112 W/m² | - |
| 1777667935 | 6.11° C | 91% | 1008 hPa | 0 mm | - | 123 W/m² | - |
| 1777667632 | 5.56° C | 90% | 1008.1 hPa | 1.78 mm | - | 115 W/m² | - |
| 1777667329 | 5.56° C | 90% | 1007.7 hPa | 1.78 mm | - | 122 W/m² | - |
| 1777667026 | 5.56° C | 90% | 1007.7 hPa | 0 mm | - | 133 W/m² | - |
| 1777666723 | 5.56° C | 90% | 1008 hPa | 0 mm | - | 137 W/m² | - |
| 1777666420 | 5.56° C | 89% | 1007.9 hPa | 1.27 mm | - | 135 W/m² | - |
| 1777666116 | 6.11° C | 90% | 1008 hPa | 1.27 mm | - | 143 W/m² | - |
| 1777665813 | 6.11° C | 90% | 1008 hPa | 1.27 mm | - | 124 W/m² | - |
| 1777665511 | 6.11° C | 91% | 1007.7 hPa | 0 mm | - | 162 W/m² | - |
| 1777665206 | 5.56° C | 90% | 1008 hPa | 0 mm | - | 164 W/m² | - |
| 1777664903 | 5.56° C | 91% | 1008 hPa | 0 mm | - | 134 W/m² | - |
| 1777664600 | 5.56° C | 91% | 1008 hPa | 0 mm | - | 130 W/m² | - |
| 1777664296 | 5.56° C | 91% | 1008.3 hPa | 0 mm | - | 141 W/m² | - |
| 1777663995 | 5.56° C | 91% | 1008 hPa | 0 mm | - | 140 W/m² | - |
| 1777663692 | 5.56° C | 91% | 1008 hPa | 0 mm | - | 140 W/m² | - |
* Rain latest hour (hover to see other rain measurements)
** Current wind speed in m/s (hover to see current wind gust speed)